,,PA_Meas_PMT16A,,PR_Meas_QMR101_102,,RH_Meas_QMH101,,SR_Meas_QMS101,,TA_Meas_QMH101,,GenWind,,GenWind,
time,status,PA,status,PR,status,RH,status,SR,status,TA,status,DirAvg,status,SpdAvg,
2015-05-26, 00:00:04,VALID,919.501,VALID,0,VALID,96.9622,VALID,0,VALID,18.9229,VALID,142,VALID,1.17227,
2015-05-26, 00:01:04,VALID,919.501,VALID,0,VALID,96.8555,VALID,0,VALID,18.9424,VALID,146,VALID,1.28867,
2015-05-26, 00:02:04,VALID,919.517,VALID,0,VALID,96.8707,VALID,0,VALID,18.9424,VALID,145,VALID,1.36523,
2015-05-26, 00:03:04,VALID,919.483,VALID,0,VALID,96.8098,VALID,0.107441,VALID,18.9424,VALID,144,VALID,1.26523,
2015-05-26, 00:04:04,VALID,919.49,VALID,0,VALID,96.8403,VALID,0,VALID,18.9229,VALID,144,VALID,1.18125,
2015-05-26, 00:05:04,VALID,919.506,VALID,0,VALID,96.9394,VALID,0,VALID,18.9438,VALID,137,VALID,0.476953,
2015-05-26, 00:06:04,VALID,919.507,VALID,0,VALID,97.1147,VALID,0,VALID,18.9229,VALID,141,VALID,0,
2015-05-26, 00:07:04,VALID,919.488,VALID,0,VALID,97.3129,VALID,0,VALID,18.9034,VALID,144,VALID,0,
2015-05-26, 00:08:04,VALID,919.498,VALID,0,VALID,97.4654,VALID,0,VALID,18.8644,VALID,142,VALID,1.13086,
2015-05-26, 00:09:04,VALID,919.522,VALID,0,VALID,97.5645,VALID,0,VALID,18.8449,VALID,141,VALID,1.48281,
2015-05-26, 00:10:04,VALID,919.498,VALID,0,VALID,97.6255,VALID,0.107441,VALID,18.8644,VALID,133,VALID,1.33477,
2015-05-26, 00:11:04,VALID,919.507,VALID,0,VALID,97.656,VALID,0,VALID,18.824,VALID,137,VALID,1.33242,
2015-05-26, 00:12:04,VALID,919.486,VALID,0,VALID,97.595,VALID,0.107441,VALID,18.8449,VALID,133,VALID,1.74141,
2015-05-26, 00:13:04,VALID,919.475,VALID,0,VALID,97.5873,VALID,0,VALID,18.8644,VALID,138,VALID,1.29258,
2015-05-26, 00:14:04,VALID,919.447,VALID,0,VALID,97.595,VALID,0,VALID,18.8644,VALID,131,VALID,1.15352,
2015-05-26, 00:15:04,VALID,919.444,VALID,0,VALID,97.595,VALID,0,VALID,18.8449,VALID,131,VALID,0.928516,
2015-05-26, 00:16:04,VALID,919.427,VALID,0,VALID,97.6178,VALID,0,VALID,18.8449,VALID,131,VALID,0.0492188,
2015-05-26, 00:17:04,VALID,919.414,VALID,0,VALID,97.5645,VALID,0,VALID,18.8449,VALID,126,VALID,0,
2015-05-26, 00:18:04,VALID,919.382,VALID,0,VALID,97.5111,VALID,0,VALID,18.8463,VALID,126,VALID,0,
2015-05-26, 00:19:04,VALID,919.42,VALID,0,VALID,97.4425,VALID,0,VALID,18.8449,VALID,126,VALID,0,
2015-05-26, 00:20:04,VALID,919.385,VALID,0,VALID,97.3663,VALID,0,VALID,18.8449,VALID,126,VALID,0,
2015-05-26, 00:21:04,VALID,919.372,VALID,0,VALID,97.229,VALID,0,VALID,18.8254,VALID,126,VALID,0,
2015-05-26, 00:22:04,VALID,919.343,VALID,0,VALID,97.1147,VALID,0,VALID,18.8853,VALID,119,VALID,0,
2015-05-26, 00:23:04,VALID,919.368,VALID,0,VALID,96.9622,VALID,0,VALID,18.8254,VALID,109,VALID,0,
2015-05-26, 00:24:04,VALID,919.34,VALID,0,VALID,96.8021,VALID,0.107441,VALID,18.8644,VALID,109,VALID,0,
2015-05-26, 00:25:04,VALID,919.385,VALID,0,VALID,96.6725,VALID,0.107441,VALID,18.8839,VALID,109,VALID,0,
2015-05-26, 00:26:04,VALID,919.35,VALID,0,VALID,96.7107,VALID,0,VALID,18.8839,VALID,109,VALID,0,
2015-05-26, 00:27:04,VALID,919.359,VALID,0,VALID,96.7411,VALID,0,VALID,18.8839,VALID,109,VALID,0,
2015-05-26, 00:28:04,VALID,919.366,VALID,0,VALID,96.764,VALID,0,VALID,18.8658,VALID,109,VALID,0,
2015-05-26, 00:29:04,VALID,919.334,VALID,0,VALID,96.8174,VALID,0,VALID,18.8449,VALID,109,VALID,0,
2015-05-26, 00:30:04,VALID,919.334,VALID,0,VALID,96.7335,VALID,0,VALID,18.8658,VALID,117,VALID,0,
2015-05-26, 00:31:04,VALID,919.312,VALID,0,VALID,96.6802,VALID,0,VALID,18.8449,VALID,125,VALID,0,
2015-05-26, 00:32:04,VALID,919.297,VALID,0,VALID,96.6954,VALID,0,VALID,18.8658,VALID,129,VALID,0,
2015-05-26, 00:33:04,VALID,919.29,VALID,0,VALID,96.6039,VALID,0,VALID,18.8658,VALID,135,VALID,0,
2015-05-26, 00:34:04,VALID,919.298,VALID,0,VALID,96.5734,VALID,0,VALID,18.8463,VALID,135,VALID,0,
2015-05-26, 00:35:04,VALID,919.308,VALID,0,VALID,96.6344,VALID,0,VALID,18.8449,VALID,134,VALID,0,
2015-05-26, 00:36:04,VALID,919.314,VALID,0,VALID,96.703,VALID,0,VALID,18.8254,VALID,135,VALID,0,
2015-05-26, 00:37:04,VALID,919.297,VALID,0,VALID,96.8326,VALID,0,VALID,18.8254,VALID,135,VALID,0,
2015-05-26, 00:38:04,VALID,919.295,VALID,0,VALID,96.9927,VALID,0,VALID,18.8059,VALID,135,VALID,0,
2015-05-26, 00:39:04,VALID,919.28,VALID,0,VALID,96.9851,VALID,0,VALID,18.8254,VALID,135,VALID,0,
2015-05-26, 00:40:04,VALID,919.316,VALID,0,VALID,97.0537,VALID,0,VALID,18.8059,VALID,128,VALID,0,
2015-05-26, 00:41:04,VALID,919.274,VALID,0,VALID,97.0994,VALID,0.107441,VALID,18.8059,VALID,122,VALID,0,
2015-05-26, 00:42:04,VALID,919.27,VALID,0,VALID,97.2062,VALID,0,VALID,18.8059,VALID,121,VALID,0,
2015-05-26, 00:43:04,VALID,919.308,VALID,0,VALID,97.3281,VALID,0,VALID,18.7864,VALID,119,VALID,0,
2015-05-26, 00:44:04,VALID,919.298,VALID,0,VALID,97.4349,VALID,0.107441,VALID,18.7669,VALID,119,VALID,0,
2015-05-26, 00:45:04,VALID,919.314,VALID,0,VALID,97.5264,VALID,0,VALID,18.7474,VALID,119,VALID,0,
2015-05-26, 00:46:04,VALID,919.324,VALID,0,VALID,97.5721,VALID,0,VALID,18.7279,VALID,114,VALID,0,
2015-05-26, 00:47:04,VALID,919.29,VALID,0,VALID,97.595,VALID,0.107441,VALID,18.7279,VALID,115,VALID,0,
2015-05-26, 00:48:04,VALID,919.27,VALID,0,VALID,97.5797,VALID,0.107441,VALID,18.7279,VALID,120,VALID,0,
2015-05-26, 00:49:04,VALID,919.269,VALID,0,VALID,97.595,VALID,0,VALID,18.7669,VALID,134,VALID,0,
2015-05-26, 00:50:04,VALID,919.269,VALID,0,VALID,97.5721,VALID,0.107441,VALID,18.7864,VALID,134,VALID,0,
2015-05-26, 00:51:04,VALID,919.267,VALID,0,VALID,97.5492,VALID,0,VALID,18.8254,VALID,139,VALID,0,
2015-05-26, 00:52:04,VALID,919.255,VALID,0,VALID,97.5035,VALID,0.107441,VALID,18.8254,VALID,139,VALID,0,
2015-05-26, 00:53:04,VALID,919.262,VALID,0,VALID,97.4577,VALID,0,VALID,18.8644,VALID,135,VALID,0.123828,
2015-05-26, 00:54:04,VALID,919.198,VALID,0,VALID,97.3815,VALID,0.107441,VALID,18.8644,VALID,137,VALID,0,
2015-05-26, 00:55:04,VALID,919.213,VALID,0,VALID,97.3739,VALID,0,VALID,18.8644,VALID,140,VALID,0,
2015-05-26, 00:56:04,VALID,919.204,VALID,0,VALID,97.3739,VALID,0,VALID,18.8449,VALID,144,VALID,0,
2015-05-26, 00:57:05,VALID,919.165,VALID,0,VALID,97.3891,VALID,0,VALID,18.8463,VALID,137,VALID,0.25625,
2015-05-26, 00:58:05,VALID,919.156,VALID,0,VALID,97.4349,VALID,0,VALID,18.8463,VALID,136,VALID,0.478516,
2015-05-26, 00:59:05,VALID,919.147,VALID,0,VALID,97.4806,VALID,0,VALID,18.8254,VALID,136,VALID,0.739844,
2015-05-26, 01:00:05,VALID,919.101,VALID,0,VALID,97.4425,VALID,0,VALID,18.8463,VALID,135,VALID,0.184766,
2015-05-26, 01:01:05,VALID,919.085,VALID,0,VALID,97.3281,VALID,0,VALID,18.8644,VALID,138,VALID,0.799609,
2015-05-26, 01:02:05,VALID,919.064,VALID,0,VALID,97.1757,VALID,0,VALID,18.9034,VALID,142,VALID,1.04648,
2015-05-26, 01:03:05,VALID,919.023,VALID,0,VALID,97.0003,VALID,0,VALID,18.9034,VALID,139,VALID,0.606641,
2015-05-26, 01:04:05,VALID,919.009,VALID,0,VALID,96.825,VALID,0,VALID,18.9438,VALID,143,VALID,0.302734,
2015-05-26, 01:05:05,VALID,918.963,VALID,0,VALID,96.5734,VALID,0,VALID,18.9424,VALID,144,VALID,0,
2015-05-26, 01:06:05,VALID,918.929,VALID,0,VALID,96.3142,VALID,0,VALID,19.0023,VALID,139,VALID,0,
2015-05-26, 01:07:05,VALID,918.943,VALID,0,VALID,96.0627,VALID,0,VALID,19.0413,VALID,143,VALID,0,
2015-05-26, 01:08:05,VALID,918.877,VALID,0,VALID,95.773,VALID,0,VALID,19.0413,VALID,144,VALID,0,
2015-05-26, 01:09:05,VALID,918.87,VALID,0,VALID,95.5367,VALID,0,VALID,19.0593,VALID,145,VALID,0,
2015-05-26, 01:10:05,VALID,918.875,VALID,0,VALID,95.5214,VALID,0,VALID,19.0788,VALID,145,VALID,0,
2015-05-26, 01:11:05,VALID,918.854,VALID,0,VALID,95.5748,VALID,0,VALID,19.0983,VALID,146,VALID,0,
2015-05-26, 01:12:05,VALID,918.852,VALID,0,VALID,95.5214,VALID,0,VALID,19.0593,VALID,146,VALID,0,
2015-05-26, 01:13:05,VALID,918.86,VALID,0,VALID,95.0106,VALID,0,VALID,19.1178,VALID,145,VALID,0,
2015-05-26, 01:14:05,VALID,918.874,VALID,0,VALID,94.6752,VALID,0,VALID,19.1568,VALID,138,VALID,0,
2015-05-26, 01:15:05,VALID,918.862,VALID,0,VALID,94.2559,VALID,0,VALID,19.1973,VALID,134,VALID,0,
2015-05-26, 01:16:05,VALID,918.841,VALID,0,VALID,94.0577,VALID,0,VALID,19.2363,VALID,134,VALID,0,
2015-05-26, 01:17:05,VALID,918.855,VALID,0,VALID,93.9357,VALID,0,VALID,19.2558,VALID,136,VALID,0,
2015-05-26, 01:18:05,VALID,918.83,VALID,0,VALID,93.5393,VALID,0,VALID,19.2948,VALID,135,VALID,0,
2015-05-26, 01:19:05,VALID,918.835,VALID,0,VALID,93.5393,VALID,0,VALID,19.2948,VALID,135,VALID,0,
2015-05-26, 01:20:05,VALID,918.823,VALID,0,VALID,93.7223,VALID,0,VALID,19.2738,VALID,141,VALID,0,
2015-05-26, 01:21:05,VALID,918.806,VALID,0,VALID,94.0043,VALID,0,VALID,19.2558,VALID,146,VALID,0,
2015-05-26, 01:22:05,VALID,918.819,VALID,0,VALID,94.0272,VALID,0,VALID,19.2348,VALID,146,VALID,0,
2015-05-26, 01:23:05,VALID,918.826,VALID,0,VALID,94.4389,VALID,0,VALID,19.2348,VALID,139,VALID,0,
2015-05-26, 01:24:05,VALID,918.799,VALID,0,VALID,94.7362,VALID,0,VALID,19.2558,VALID,142,VALID,0,
2015-05-26, 01:25:05,VALID,918.833,VALID,0,VALID,94.9878,VALID,0,VALID,19.2168,VALID,127,VALID,0,
2015-05-26, 01:26:05,VALID,918.815,VALID,0,VALID,95.2698,VALID,0,VALID,19.1568,VALID,128,VALID,0,
2015-05-26, 01:27:05,VALID,918.807,VALID,0,VALID,95.5443,VALID,0,VALID,19.1178,VALID,126,VALID,0,
2015-05-26, 01:28:05,VALID,918.799,VALID,0,VALID,95.8645,VALID,0,VALID,19.0788,VALID,117,VALID,0,
2015-05-26, 01:29:05,VALID,918.834,VALID,0,VALID,96.0703,VALID,0,VALID,19.0608,VALID,120,VALID,0,
2015-05-26, 01:30:05,VALID,918.813,VALID,0,VALID,96.299,VALID,0,VALID,19.0203,VALID,120,VALID,0,
2015-05-26, 01:31:05,VALID,918.828,VALID,0,VALID,96.4667,VALID,0,VALID,19.0008,VALID,119,VALID,0,
2015-05-26, 01:32:05,VALID,918.82,VALID,0,VALID,96.5734,VALID,0,VALID,18.9828,VALID,120,VALID,0,
2015-05-26, 01:33:05,VALID,918.815,VALID,0,VALID,96.642,VALID,0,VALID,18.9814,VALID,118,VALID,0,
2015-05-26, 01:34:05,VALID,918.803,VALID,0,VALID,96.5887,VALID,0,VALID,18.9814,VALID,125,VALID,0,
2015-05-26, 01:35:05,VALID,918.81,VALID,0,VALID,96.4819,VALID,0,VALID,19.0008,VALID,116,VALID,0,
2015-05-26, 01:36:05,VALID,918.78,VALID,0,VALID,96.4362,VALID,0,VALID,19.0203,VALID,113,VALID,0,
2015-05-26, 01:37:05,VALID,918.787,VALID,0,VALID,96.36,VALID,0,VALID,19.0608,VALID,123,VALID,0,
2015-05-26, 01:38:05,VALID,918.754,VALID,0,VALID,96.3371,VALID,0,VALID,19.0398,VALID,125,VALID,0.00976563,
2015-05-26, 01:39:05,VALID,918.79,VALID,0,VALID,96.3524,VALID,0,VALID,19.0803,VALID,133,VALID,0,
2015-05-26, 01:40:05,VALID,918.753,VALID,0,VALID,96.3524,VALID,0.107441,VALID,19.0593,VALID,122,VALID,0,
2015-05-26, 01:41:05,VALID,918.785,VALID,0,VALID,96.4743,VALID,0,VALID,19.0608,VALID,125,VALID,0.0136719,
2015-05-26, 01:42:05,VALID,918.79,VALID,0,VALID,96.6039,VALID,0,VALID,19.0203,VALID,102,VALID,0,
2015-05-26, 01:43:05,VALID,918.8,VALID,0,VALID,96.703,VALID,0,VALID,19.0008,VALID,105,VALID,1.06562,
2015-05-26, 01:44:05,VALID,918.794,VALID,0,VALID,96.7716,VALID,0,VALID,19.0203,VALID,125,VALID,0.962109,
2015-05-26, 01:45:05,VALID,918.798,VALID,0,VALID,96.8479,VALID,0,VALID,19.0008,VALID,129,VALID,1.15977,
2015-05-26, 01:46:05,VALID,918.802,VALID,0,VALID,96.8784,VALID,0,VALID,19.0008,VALID,124,VALID,0.992969,
2015-05-26, 01:47:05,VALID,918.801,VALID,0,VALID,96.9241,VALID,0,VALID,19.0218,VALID,127,VALID,0.869531,
2015-05-26, 01:48:05,VALID,918.774,VALID,0,VALID,96.9622,VALID,0,VALID,19.0008,VALID,121,VALID,0.0972656,
2015-05-26, 01:49:05,VALID,918.766,VALID,0,VALID,96.9851,VALID,0,VALID,19.0218,VALID,127,VALID,0,
2015-05-26, 01:50:05,VALID,918.741,VALID,0,VALID,96.9775,VALID,0,VALID,19.0008,VALID,118,VALID,0,
2015-05-26, 01:51:05,VALID,918.735,VALID,0,VALID,96.9622,VALID,0,VALID,19.0203,VALID,117,VALID,0,
2015-05-26, 01:52:05,VALID,918.708,VALID,0,VALID,96.9317,VALID,0,VALID,19.0413,VALID,121,VALID,0,
2015-05-26, 01:53:05,VALID,918.72,VALID,0,VALID,96.8174,VALID,0,VALID,19.0413,VALID,124,VALID,0,
2015-05-26, 01:54:05,VALID,918.705,VALID,0,VALID,96.6802,VALID,0,VALID,19.0608,VALID,122,VALID,0,
2015-05-26, 01:55:05,VALID,918.682,VALID,0,VALID,96.6192,VALID,0,VALID,19.0593,VALID,122,VALID,0,
2015-05-26, 01:56:05,VALID,918.706,VALID,0,VALID,96.4896,VALID,0,VALID,19.0398,VALID,125,VALID,0,
2015-05-26, 01:57:05,VALID,918.675,VALID,0,VALID,96.299,VALID,0.107441,VALID,19.0593,VALID,131,VALID,0,
2015-05-26, 01:58:05,VALID,918.661,VALID,0,VALID,96.0245,VALID,0,VALID,19.0788,VALID,134,VALID,0,
2015-05-26, 01:59:05,VALID,918.652,VALID,0,VALID,95.6967,VALID,0,VALID,19.0983,VALID,134,VALID,0,
2015-05-26, 02:00:05,VALID,918.661,VALID,0,VALID,95.2546,VALID,0,VALID,19.1178,VALID,136,VALID,0,
2015-05-26, 02:01:05,VALID,918.633,VALID,0,VALID,94.3474,VALID,0,VALID,19.1568,VALID,134,VALID,0,
2015-05-26, 02:02:05,VALID,918.597,VALID,0,VALID,92.5788,VALID,0.107441,VALID,19.2543,VALID,134,VALID,0,
2015-05-26, 02:03:05,VALID,918.578,VALID,0,VALID,91.0388,VALID,0.107441,VALID,19.2738,VALID,133,VALID,0,
2015-05-26, 02:04:05,VALID,918.561,VALID,0,VALID,90.2155,VALID,0,VALID,19.3323,VALID,132,VALID,0,
2015-05-26, 02:05:05,VALID,918.545,VALID,0,VALID,90.3908,VALID,0,VALID,19.3518,VALID,130,VALID,0,
2015-05-26, 02:06:05,VALID,918.57,VALID,0,VALID,90.6577,VALID,0.107441,VALID,19.3713,VALID,129,VALID,0,
2015-05-26, 02:07:05,VALID,918.566,VALID,0,VALID,90.0325,VALID,0.107441,VALID,19.3518,VALID,130,VALID,0,
2015-05-26, 07:27:04,VALID,919.368,VALID,0,VALID,97.6636,VALID,66.3986,VALID,19.0037,VALID,118,VALID,0,
2015-05-26, 07:28:04,VALID,919.383,VALID,0,VALID,97.6712,VALID,68.0102,VALID,18.9828,VALID,118,VALID,0,
2015-05-26, 07:29:04,VALID,919.375,VALID,0,VALID,97.5873,VALID,69.6219,VALID,18.9828,VALID,116,VALID,0,
2015-05-26, 07:30:04,VALID,919.4,VALID,0,VALID,97.4349,VALID,71.126,VALID,19.0218,VALID,116,VALID,0,
2015-05-26, 07:31:04,VALID,919.417,VALID,0,VALID,97.2748,VALID,72.6302,VALID,19.0398,VALID,119,VALID,0,
2015-05-26, 07:32:04,VALID,919.456,VALID,0,VALID,97.2214,VALID,74.1344,VALID,19.0593,VALID,133,VALID,0,
2015-05-26, 07:33:04,VALID,919.45,VALID,0,VALID,97.2595,VALID,75.746,VALID,19.1193,VALID,149,VALID,0,
2015-05-26, 07:34:04,VALID,919.482,VALID,0,VALID,97.2977,VALID,77.3576,VALID,19.0788,VALID,153,VALID,0,
2015-05-26, 07:35:04,VALID,919.475,VALID,0,VALID,97.2672,VALID,79.0767,VALID,19.0398,VALID,154,VALID,0,
2015-05-26, 07:36:04,VALID,919.51,VALID,0,VALID,97.29,VALID,80.6883,VALID,19.0023,VALID,156,VALID,0,
2015-05-26, 07:37:04,VALID,919.491,VALID,0,VALID,97.351,VALID,82.1925,VALID,18.9814,VALID,154,VALID,0,
2015-05-26, 07:38:04,VALID,919.553,VALID,0,VALID,97.4349,VALID,83.8041,VALID,18.9424,VALID,171,VALID,0,
2015-05-26, 07:39:04,VALID,919.558,VALID,0,VALID,97.5035,VALID,85.2008,VALID,18.9034,VALID,159,VALID,0,
2015-05-26, 07:40:04,VALID,919.573,VALID,0,VALID,97.4806,VALID,86.8125,VALID,18.8839,VALID,145,VALID,1.35078,
2015-05-26, 07:41:04,VALID,919.605,VALID,0,VALID,97.4273,VALID,88.3166,VALID,18.9034,VALID,145,VALID,0.738672,
2015-05-26, 07:42:04,VALID,919.604,VALID,0,VALID,97.3739,VALID,89.8208,VALID,18.9424,VALID,147,VALID,0.974609,
2015-05-26, 07:43:04,VALID,919.604,VALID,0,VALID,97.229,VALID,91.4324,VALID,18.9814,VALID,143,VALID,0.0195313,
2015-05-26, 07:44:04,VALID,919.629,VALID,0,VALID,97.069,VALID,92.9366,VALID,19.0008,VALID,146,VALID,0,
2015-05-26, 07:45:04,VALID,919.62,VALID,0,VALID,96.8098,VALID,94.7631,VALID,19.0788,VALID,146,VALID,0,
2015-05-26, 07:46:04,VALID,919.635,VALID,0,VALID,96.5124,VALID,96.697,VALID,19.1178,VALID,140,VALID,0,
2015-05-26, 07:47:04,VALID,919.634,VALID,0,VALID,95.9178,VALID,98.7384,VALID,19.1763,VALID,121,VALID,0.932813,
2015-05-26, 07:48:04,VALID,919.623,VALID,0,VALID,95.3613,VALID,100.995,VALID,19.2543,VALID,138,VALID,0.718359,
2015-05-26, 07:49:04,VALID,919.655,VALID,0,VALID,94.416,VALID,103.573,VALID,19.2933,VALID,133,VALID,1.27695,
2015-05-26, 07:50:04,VALID,919.626,VALID,0,VALID,93.3106,VALID,106.904,VALID,19.3908,VALID,140,VALID,1.32734,
2015-05-26, 07:51:04,VALID,919.637,VALID,0,VALID,91.6792,VALID,110.127,VALID,19.4493,VALID,138,VALID,0.817187,
2015-05-26, 07:52:04,VALID,919.646,VALID,0,VALID,91.824,VALID,112.598,VALID,19.5078,VALID,140,VALID,0.705078,
2015-05-26, 07:53:04,VALID,919.616,VALID,0,VALID,91.2294,VALID,115.714,VALID,19.5678,VALID,143,VALID,0.825391,
2015-05-26, 07:54:04,VALID,919.64,VALID,0,VALID,91.9613,VALID,119.26,VALID,19.6053,VALID,124,VALID,1.2375,
2015-05-26, 07:55:04,VALID,919.639,VALID,0,VALID,91.3895,VALID,122.698,VALID,19.5858,VALID,136,VALID,1.56094,
2015-05-26, 07:56:04,VALID,919.653,VALID,0,VALID,91.5725,VALID,126.243,VALID,19.5858,VALID,139,VALID,1.17969,
2015-05-26, 07:57:04,VALID,919.663,VALID,0,VALID,92.7084,VALID,129.896,VALID,19.6053,VALID,135,VALID,1.03906,
2015-05-26, 07:58:04,VALID,919.649,VALID,0,VALID,93.3411,VALID,133.764,VALID,19.6053,VALID,133,VALID,1.21758,
2015-05-26, 07:59:04,VALID,919.661,VALID,0,VALID,93.7985,VALID,137.417,VALID,19.5843,VALID,128,VALID,1.0082,
2015-05-26, 08:00:04,VALID,919.642,VALID,0,VALID,93.6308,VALID,140.963,VALID,19.5858,VALID,128,VALID,1.65781,
2015-05-26, 08:01:04,VALID,919.697,VALID,0,VALID,93.9586,VALID,144.293,VALID,19.6053,VALID,128,VALID,1.27578,
2015-05-26, 08:02:04,VALID,919.712,VALID,0,VALID,92.777,VALID,147.302,VALID,19.6053,VALID,142,VALID,1.57187,
2015-05-26, 08:03:04,VALID,919.685,VALID,0,VALID,93.646,VALID,150.095,VALID,19.6638,VALID,142,VALID,1.07617,
2015-05-26, 08:04:04,VALID,919.689,VALID,0,VALID,92.0146,VALID,152.781,VALID,19.6638,VALID,133,VALID,1.53594,
2015-05-26, 08:05:04,VALID,919.692,VALID,0,VALID,93.5546,VALID,155.467,VALID,19.7013,VALID,118,VALID,0.000390625,
2015-05-26, 08:06:04,VALID,919.684,VALID,0,VALID,93.364,VALID,157.938,VALID,19.7598,VALID,125,VALID,0.940234,
2015-05-26, 08:07:04,VALID,919.683,VALID,0,VALID,88.7975,VALID,160.195,VALID,19.7613,VALID,112,VALID,1.29844,
2015-05-26, 08:08:04,VALID,919.685,VALID,0,VALID,89.255,VALID,162.558,VALID,19.8183,VALID,110,VALID,0.770703,
2015-05-26, 08:09:04,VALID,919.71,VALID,0,VALID,88.7518,VALID,165.03,VALID,19.8378,VALID,120,VALID,0.887109,
2015-05-26, 08:10:04,VALID,919.724,VALID,0,VALID,88.2487,VALID,167.501,VALID,19.8963,VALID,102,VALID,1.22031,
2015-05-26, 08:11:04,VALID,919.742,VALID,0,VALID,88.3935,VALID,170.294,VALID,19.9743,VALID,109,VALID,0.870313,
2015-05-26, 08:12:04,VALID,919.756,VALID,0,VALID,87.7913,VALID,172.98,VALID,20.0358,VALID,112,VALID,0.620703,
2015-05-26, 08:13:04,VALID,919.803,VALID,0,VALID,87.1814,VALID,175.989,VALID,20.0733,VALID,126,VALID,0.0195313,
2015-05-26, 08:14:04,VALID,919.835,VALID,0,VALID,85.8015,VALID,179.319,VALID,20.1513,VALID,137,VALID,0,
2015-05-26, 08:15:04,VALID,919.835,VALID,0,VALID,86.5258,VALID,182.543,VALID,20.2489,VALID,138,VALID,0,
2015-05-26, 08:16:04,VALID,919.863,VALID,0,VALID,86.5563,VALID,185.658,VALID,20.3269,VALID,133,VALID,0,
2015-05-26, 08:17:04,VALID,919.868,VALID,0,VALID,86.1294,VALID,188.667,VALID,20.4244,VALID,169,VALID,0.777344,
2015-05-26, 08:18:04,VALID,919.902,VALID,0,VALID,84.902,VALID,191.89,VALID,20.4439,VALID,150,VALID,1.04727,
2015-05-26, 08:19:04,VALID,919.95,VALID,0,VALID,85.4737,VALID,195.543,VALID,20.4439,VALID,154,VALID,0.866016,
2015-05-26, 08:20:04,VALID,919.894,VALID,0,VALID,85.5424,VALID,199.196,VALID,20.4049,VALID,147,VALID,1.04648,
2015-05-26, 08:21:04,VALID,919.95,VALID,0,VALID,86.7087,VALID,202.741,VALID,20.4439,VALID,154,VALID,0.723828,
2015-05-26, 08:22:04,VALID,919.92,VALID,0,VALID,86.1522,VALID,206.932,VALID,20.4439,VALID,155,VALID,0,
2015-05-26, 08:23:04,VALID,919.95,VALID,0,VALID,84.7571,VALID,212.304,VALID,20.4634,VALID,153,VALID,0,
2015-05-26, 08:24:04,VALID,919.96,VALID,0,VALID,85.5576,VALID,222.081,VALID,20.4829,VALID,161,VALID,0.127344,
2015-05-26, 08:25:04,VALID,919.965,VALID,0,VALID,85.1154,VALID,252.916,VALID,20.5024,VALID,153,VALID,0,
2015-05-26, 08:26:04,VALID,919.95,VALID,0,VALID,84.376,VALID,264.628,VALID,20.5414,VALID,153,VALID,0,
2015-05-26, 08:27:04,VALID,919.969,VALID,0,VALID,84.2235,VALID,263.875,VALID,20.5984,VALID,156,VALID,0,
2015-05-26, 08:28:04,VALID,919.96,VALID,0,VALID,83.423,VALID,250.983,VALID,20.6569,VALID,135,VALID,0,
2015-05-26, 08:29:04,VALID,919.979,VALID,0,VALID,81.906,VALID,235.296,VALID,20.795,VALID,157,VALID,0,
2015-05-26, 08:30:04,VALID,919.994,VALID,0,VALID,81.6544,VALID,232.073,VALID,20.873,VALID,144,VALID,0,
2015-05-26, 08:31:04,VALID,920.022,VALID,0,VALID,81.3571,VALID,230.784,VALID,20.9316,VALID,141,VALID,0,
2015-05-26, 08:32:04,VALID,920.056,VALID,0,VALID,82.1347,VALID,226.164,VALID,21.0275,VALID,155,VALID,0,
2015-05-26, 08:33:04,VALID,920.076,VALID,0,VALID,80.4728,VALID,224.015,VALID,21.1055,VALID,151,VALID,0,
2015-05-26, 08:34:04,VALID,920.087,VALID,0,VALID,78.1629,VALID,223.155,VALID,21.2047,VALID,159,VALID,0,
2015-05-26, 08:35:04,VALID,920.125,VALID,0,VALID,78.7804,VALID,224.015,VALID,21.2616,VALID,155,VALID,0,
2015-05-26, 08:36:04,VALID,920.132,VALID,0,VALID,78.7804,VALID,226.916,VALID,21.3591,VALID,157,VALID,0,
2015-05-26, 08:37:04,VALID,920.157,VALID,0,VALID,78.9938,VALID,224.659,VALID,21.4372,VALID,158,VALID,0,
2015-05-26, 08:38:04,VALID,920.174,VALID,0,VALID,79.5122,VALID,225.197,VALID,21.5754,VALID,158,VALID,0,
2015-05-26, 08:39:04,VALID,920.187,VALID,0,VALID,77.7512,VALID,230.246,VALID,21.6713,VALID,166,VALID,0,
2015-05-26, 08:40:04,VALID,920.205,VALID,0,VALID,76.44,VALID,230.784,VALID,21.7688,VALID,170,VALID,0,
2015-05-26, 08:41:04,VALID,920.245,VALID,0,VALID,76.1198,VALID,234.222,VALID,21.8079,VALID,173,VALID,0,
2015-05-26, 08:42:04,VALID,920.249,VALID,0,VALID,75.7158,VALID,238.949,VALID,21.8469,VALID,173,VALID,0,
2015-05-26, 08:43:04,VALID,920.269,VALID,0,VALID,75.7539,VALID,244.858,VALID,21.8859,VALID,175,VALID,0,
2015-05-26, 08:44:04,VALID,920.304,VALID,0,VALID,77.2633,VALID,251.09,VALID,21.964,VALID,175,VALID,0,
2015-05-26, 08:45:04,VALID,920.289,VALID,0,VALID,75.3498,VALID,257.107,VALID,21.9249,VALID,153,VALID,0,
2015-05-26, 08:46:04,VALID,920.344,VALID,0,VALID,74.2978,VALID,262.049,VALID,21.9249,VALID,148,VALID,0,
2015-05-26, 08:47:04,VALID,920.348,VALID,0,VALID,75.4261,VALID,266.454,VALID,21.9249,VALID,147,VALID,0,
2015-05-26, 08:48:04,VALID,920.377,VALID,0,VALID,75.8301,VALID,271.396,VALID,21.8647,VALID,157,VALID,0,
2015-05-26, 08:49:04,VALID,920.386,VALID,0,VALID,76.8364,VALID,277.628,VALID,21.8842,VALID,156,VALID,0,
2015-05-26, 08:50:04,VALID,920.404,VALID,0,VALID,77.5911,VALID,286.008,VALID,21.9835,VALID,156,VALID,0,
2015-05-26, 08:51:04,VALID,920.422,VALID,0,VALID,76.2037,VALID,291.595,VALID,22.0794,VALID,155,VALID,0,
2015-05-26, 08:52:04,VALID,920.434,VALID,0,VALID,76.3104,VALID,296.323,VALID,22.1574,VALID,135,VALID,0,
2015-05-26, 08:53:04,VALID,920.455,VALID,0,VALID,76.5848,VALID,302.017,VALID,22.3152,VALID,135,VALID,0,
2015-05-26, 08:54:04,VALID,920.451,VALID,0,VALID,72.9637,VALID,308.464,VALID,22.4111,VALID,136,VALID,0,
2015-05-26, 08:55:04,VALID,920.442,VALID,0,VALID,69.1901,VALID,309.216,VALID,22.4696,VALID,136,VALID,0,
2015-05-26, 08:56:04,VALID,920.466,VALID,0,VALID,73.5812,VALID,308.571,VALID,22.4713,VALID,133,VALID,0,
2015-05-26, 08:57:04,VALID,920.492,VALID,0,VALID,73.6879,VALID,314.695,VALID,22.4908,VALID,128,VALID,0,
2015-05-26, 08:58:04,VALID,920.486,VALID,0,VALID,74.8696,VALID,308.786,VALID,22.5086,VALID,128,VALID,0,
2015-05-26, 08:59:04,VALID,920.462,VALID,0,VALID,72.8417,VALID,308.034,VALID,22.6079,VALID,128,VALID,0,
2015-05-26, 09:00:04,VALID,920.479,VALID,0,VALID,74.8238,VALID,310.075,VALID,22.6079,VALID,97,VALID,0,
2015-05-26, 09:01:04,VALID,920.473,VALID,0,VALID,69.3578,VALID,320.175,VALID,22.5299,VALID,101,VALID,0,
2015-05-26, 09:02:04,VALID,920.465,VALID,0,VALID,74.9382,VALID,319.208,VALID,22.5299,VALID,103,VALID,0,
2015-05-26, 09:03:04,VALID,920.455,VALID,0,VALID,74.2216,VALID,324.795,VALID,22.5884,VALID,132,VALID,0,
2015-05-26, 09:04:04,VALID,920.472,VALID,0,VALID,74.2826,VALID,387.218,VALID,22.7055,VALID,136,VALID,0,
2015-05-26, 09:05:04,VALID,920.473,VALID,0,VALID,73.5888,VALID,335.968,VALID,22.8209,VALID,137,VALID,0,
2015-05-26, 09:06:04,VALID,920.463,VALID,0,VALID,73.444,VALID,340.911,VALID,22.9592,VALID,140,VALID,0,
2015-05-26, 09:07:04,VALID,920.452,VALID,0,VALID,72.8341,VALID,350.58,VALID,23.1136,VALID,141,VALID,0,